Location: Silverdale
(47.6506°N, 122.6941°W)
Time: 15:40:40
(UTC+00:00)

Vanguard 1 - All Passes

Search period start: 26 September 2022 00:00
Search period end: 06 October 2022 00:00
Orbit: 649 x 3832 km, 34.2° (Epoch: 25 September)

Date Brightness Start Highest point End Pass type
(mag) Time Alt. Az. Time Alt. Az. Time Alt. Az.
26 Sep - 00:39:32 10° SW 00:47:12 25° S 00:52:19 10° ESE daylight
26 Sep - 03:01:51 10° WSW 03:06:44 21° SSW 03:10:27 10° SE visible
26 Sep - 22:38:31 10° SSW 22:47:12 21° SSE 22:53:13 10° ESE daylight
27 Sep - 00:59:50 10° SW 01:07:42 27° S 01:12:50 10° ESE daylight
27 Sep - 03:22:41 10° WSW 03:27:01 19° SSW 03:30:27 10° SSE visible
27 Sep - 20:41:41 10° SSE 20:46:23 12° SSE 20:50:26 10° SE daylight
27 Sep - 22:57:58 10° SSW 23:07:49 25° SSE 23:14:15 10° ESE daylight
28 Sep - 01:20:21 10° WSW 01:28:10 29° S 01:33:15 10° SE daylight
28 Sep - 03:43:46 10° WSW 03:47:15 15° SSW 03:50:09 10° S visible
28 Sep - 20:58:21 10° S 21:07:02 17° SSE 21:13:36 10° ESE daylight
28 Sep - 23:17:51 10° SW 23:28:24 29° S 23:35:01 10° ESE daylight
29 Sep - 01:41:00 10° WSW 01:48:34 28° S 01:53:32 10° SE daylight
29 Sep - 04:05:25 10° SW 04:07:25 12° SSW 04:09:13 10° S visible
29 Sep - 21:16:41 10° SSW 21:27:42 22° SSE 21:35:19 10° ESE daylight
29 Sep - 23:38:03 10° SW 23:48:58 32° S 23:55:36 10° ESE daylight
30 Sep - 02:01:46 10° WSW 02:08:55 26° SSW 02:13:43 10° SE daylight
30 Sep - 19:21:46 10° SSE 19:26:19 11° SE 19:30:22 10° SE daylight
30 Sep - 21:35:49 10° SSW 21:48:20 27° SSE 21:56:30 10° ESE daylight
30 Sep - 23:58:30 10° WSW 00:09:30 34° S 00:16:05 10° ESE daylight
01 Oct - 02:22:40 10° WSW 02:29:12 24° SSW 02:33:44 10° SSE visible
01 Oct - 19:37:06 10° S 19:46:55 16° SSE 19:54:37 10° ESE daylight
01 Oct - 21:55:29 10° SW 22:08:58 31° SSE 22:17:23 10° ESE daylight
02 Oct - 00:19:08 10° WSW 00:30:00 35° S 00:36:28 10° ESE daylight
02 Oct - 02:43:45 10° WSW 02:49:24 20° SSW 02:53:31 10° SSE visible
02 Oct - 19:54:49 10° SSW 20:07:33 22° SSE 20:16:46 10° ESE daylight
02 Oct - 22:15:30 10° SW 22:29:36 35° S 22:38:04 10° ESE daylight
03 Oct - 00:39:53 10° WSW 00:50:26 35° SSW 00:56:45 10° SE daylight
03 Oct - 03:05:08 10° WSW 03:09:30 16° SW 03:12:55 10° S visible
03 Oct - 20:13:31 10° SSW 20:28:11 27° SSE 20:38:12 10° ESE daylight
03 Oct - 22:35:50 10° SW 22:50:13 39° S 22:58:38 10° ESE daylight
04 Oct - 01:00:46 10° WSW 01:10:49 33° SSW 01:16:55 10° SE daylight
04 Oct - 03:27:24 10° WSW 03:29:30 11° SW 03:31:23 10° SSW visible
04 Oct - 18:16:46 10° SSE 18:26:18 15° SE 18:34:20 10° ESE daylight
04 Oct - 20:32:49 10° SSW 20:48:50 32° SSE 20:59:15 10° ESE daylight
04 Oct - 22:56:23 10° WSW 23:10:47 41° S 23:19:05 10° ESE daylight
05 Oct - 01:21:45 10° WSW 01:31:05 29° SSW 01:36:57 10° SE daylight
05 Oct - 18:33:31 10° S 18:46:49 20° SE 18:57:16 10° ESE daylight
05 Oct - 20:52:35 10° SW 21:09:29 37° SSE 21:20:04 10° ESE daylight
05 Oct - 23:17:06 10° WSW 23:31:19 42° S 23:39:28 10° ESE daylight
